Weather History for KEED - February, 2013

Change the Weather History Date:

Wednesday, February 6, 2013

  Actual Average (KIGM) Record (KIGM)
Temperature  
Mean Temperature 64 °F 46 °F  
Max Temperature 75 °F 59 °F 79 °F (1963)
Min Temperature 53 °F 33 °F 12 °F (1989)
Degree Days  
Heating Degree Days 1 19  
Month to date heating degree days 117  
Since 1 July heating degree days 2022  
Cooling Degree Days 0 0  
Month to date cooling degree days 0  
Year to date cooling degree days 0  
Growing Degree Days 14 (Base 50)    
Moisture  
Dew Point 32 °F    
Average Humidity 32    
Maximum Humidity 49    
Minimum Humidity 18    
Precipitation  
Precipitation 0.00 in 0.05 in 1.30 in (1935)
Month to date precipitation 0.26  
Year to date precipitation 1.28  
Sea Level Pressure  
Sea Level Pressure 29.89 in    
Wind  
Wind Speed 2 mph (West)    
Max Wind Speed 10 mph    
Max Gust Speed -    
Visibility 10 miles    
Events      
T = Trace of Precipitation, MM = Missing Value Source: NWS Daily Summary

Daily Weather History Graph

Daily Weather History Graph

Search for Another Location

Airport or City:

Trip Planner

Search our weather history database for the weather conditions in past years. The results will help you decide how hot, cold, wet, or windy it might be!

Date:

Astronomy

Feb. 06, 2013 Rise Set
Actual Time 6:32 AM PST 5:13 PM PST
Civil Twilight 6:06 AM PST 5:39 PM PST
Nautical Twilight 5:36 AM PST 6:09 PM PST
Astronomical Twilight 5:06 AM PST 6:38 PM PST
Moon 3:15 AM PST (2/6) 1:40 PM PST (2/6)
Length of Visible Light 11h 33m
Length of Day
10h 40m
Waning Crescent, 16% of the Moon is Illuminated
Feb 6
Waning Crescent
Feb 9
New
Feb 17
First Quarter
Feb 25
Full
Mar 4
Last Quarter

Hourly Weather History & Observations

Time (PST) Temp. Dew Point Humidity Pressure Visibility Wind Dir Wind Speed Gust Speed Precip Events Conditions
12:56 AM 57.9 °F 34.0 °F 41% 29.83 in 10.0 mi Calm Calm - N/A   Clear
2:56 AM 55.9 °F 35.1 °F 45% 29.81 in 10.0 mi Calm Calm - N/A   Clear
3:56 AM 55.9 °F 35.1 °F 45% 29.81 in 10.0 mi North 3.5 mph - N/A   Clear
5:56 AM 54.0 °F 35.1 °F 49% 29.87 in 10.0 mi West 3.5 mph - N/A   Clear
6:56 AM 53.1 °F 34.0 °F 48% 29.86 in 10.0 mi Calm Calm - N/A   Clear
7:56 AM 57.0 °F 36.0 °F 45% 29.88 in 10.0 mi Calm Calm - N/A   Clear
8:56 AM 63.0 °F 35.1 °F 35% 29.89 in 10.0 mi South 5.8 mph - N/A   Clear
9:56 AM 66.0 °F 34.0 °F 30% 29.90 in 10.0 mi Calm Calm - N/A   Clear
10:56 AM 70.0 °F 33.1 °F 26% 29.89 in 10.0 mi Variable 4.6 mph - N/A   Clear
11:56 AM 71.1 °F 30.9 °F 23% 29.88 in 10.0 mi Calm Calm - N/A   Clear
12:56 PM 73.0 °F 28.0 °F 19% 29.86 in 10.0 mi NNW 3.5 mph - N/A   Clear
1:56 PM 73.9 °F 30.0 °F 20% 29.85 in 10.0 mi Variable 4.6 mph - N/A   Clear
2:56 PM 75.0 °F 28.9 °F 18% 29.86 in 10.0 mi Calm Calm - N/A   Clear
3:56 PM 75.0 °F 28.0 °F 18% 29.87 in 10.0 mi Calm Calm - N/A   Clear
4:56 PM 71.1 °F 30.0 °F 22% 29.88 in 10.0 mi Calm Calm - N/A   Clear
5:56 PM 66.0 °F 32.0 °F 28% 29.90 in 10.0 mi WNW 6.9 mph - N/A   Clear
6:56 PM 63.0 °F 32.0 °F 31% 29.92 in 10.0 mi West 8.1 mph - N/A   Clear
7:56 PM 61.0 °F 30.9 °F 32% 29.93 in 10.0 mi West 10.4 mph - N/A   Clear
8:56 PM 60.1 °F 30.0 °F 32% 29.94 in 10.0 mi Variable 3.5 mph - N/A   Clear
9:56 PM 59.0 °F 27.0 °F 29% 29.96 in 10.0 mi SSW 3.5 mph - N/A   Clear
10:56 PM 55.9 °F 28.0 °F 34% 29.97 in 10.0 mi WSW 3.5 mph - N/A   Clear
11:56 PM 54.0 °F 26.1 °F 34% 29.98 in 10.0 mi WSW 3.5 mph - N/A   Clear